This is the latest recevied weather packets stored in our database for station/object DB0FN-10. If no packets are shown the sender has not sent any weather packets the latest 10 day(s).
| Time | Temp. | Humidity | Pressure | Rain* | Wind** | Luminosity | Snow |
|---|---|---|---|---|---|---|---|
| 1777650367 | 23.33° C | 21% | 1026.6 hPa | - | - | - | - |
| 1777649466 | 22.78° C | 20% | 1026.8 hPa | - | - | - | - |
| 1777647666 | 22.78° C | 22% | 1026.9 hPa | - | - | - | - |
| 1777646766 | 22.78° C | 23% | 1026.9 hPa | - | - | - | - |
| 1777645866 | 23.33° C | 22% | 1026.8 hPa | - | - | - | - |
| 1777644966 | 23.33° C | 25% | 1027.1 hPa | - | - | - | - |
| 1777644066 | 22.22° C | 23% | 1027.3 hPa | - | - | - | - |
| 1777643166 | 22.78° C | 24% | 1027.4 hPa | - | - | - | - |
| 1777642266 | 22.22° C | 25% | 1027.5 hPa | - | - | - | - |
| 1777641366 | 21.67° C | 23% | 1027.6 hPa | - | - | - | - |
| 1777640466 | 21.67° C | 24% | 1027.8 hPa | - | - | - | - |
| 1777639566 | 22.22° C | 23% | 1027.9 hPa | - | - | - | - |
| 1777638665 | 21.11° C | 25% | 1028 hPa | - | - | - | - |
| 1777637765 | 21.67° C | 28% | 1028 hPa | - | - | - | - |
| 1777636865 | 21.11° C | 26% | 1028.1 hPa | - | - | - | - |
| 1777635965 | 20.56° C | 27% | 1028.1 hPa | - | - | - | - |
| 1777635065 | 20° C | 27% | 1028.3 hPa | - | - | - | - |
| 1777634165 | 20° C | 28% | 1028.6 hPa | - | - | - | - |
| 1777633265 | 20° C | 30% | 1028.5 hPa | - | - | - | - |
| 1777632365 | 19.44° C | 33% | 1028.7 hPa | - | - | - | - |
| 1777631465 | 19.44° C | 31% | 1028.7 hPa | - | - | - | - |
| 1777630565 | 19.44° C | 31% | 1028.8 hPa | - | - | - | - |
| 1777629663 | 19.44° C | 30% | 1028.8 hPa | - | - | - | - |
| 1777628763 | 19.44° C | 30% | 1028.7 hPa | - | - | - | - |
| 1777627863 | 18.33° C | 35% | 1028.8 hPa | - | - | - | - |
* Rain since midnight (hover to see other rain measurements)
** Current wind speed in m/s (hover to see current wind gust speed)